Location: Larkspur
(54.4391°N, 113.7691°W)
Time: 14:33:17
(UTC+00:00)

Oscar 19 - Pass Details

Date: 30 November 2023
Orbit: 771 x 789 km, 98.9° (Epoch: 01 March)

Event Time Altitude Azimuth Distance (km) Brightness Sun altitude
Rises 13:01:23 0° 14° (NNE) 3,269 13.9 -20.6°
Reaches altitude 10° 13:03:42 10° 12° (NNE) 2,339 13.1 -20.3°
Maximum altitude 13:08:48 65° 292° (WNW) 861 10.5 -19.6°
Drops below altitude 10° 13:13:54 10° 212° (SSW) 2,335 12.9 -18.9°
Sets 13:16:13 0° 209° (SSW) 3,261 13.7 -18.5°
